Location: *
(50.9167°S, 179.4000°W)
Time: 20:05:43
(UTC+00:00)

USA 267 - Pass Details

Date: 03 March 2024
Orbit: 1102 x 1105 km, 123.0° (Epoch: 06 April)

Event Time Altitude Azimuth Distance (km) Brightness Sun altitude
Rises 16:53:46 0° 88° (E) 3,941 7.7 -6.7°
Reaches altitude 10° 16:56:17 10° 92° (E) 2,985 7.0 -6.3°
Maximum altitude 17:02:43 58° 168° (SSE) 1,287 3.9 -5.3°
Drops below altitude 10° 17:09:11 10° 244° (WSW) 2,994 5.1 -4.3°
Sets 17:11:42 0° 248° (WSW) 3,953 5.7 -4.0°
